When you browse on this site, cookies collect data to enhance your experience and personalize the content and advertising you see.
Visit our Privacy Policy to learn more. By continuing to use the site, you agree to this use of cookies and data.
  • In Hungary
  • List of Countries
  • For 7 days
  • Water Temperature
  • Satellite Maps
  • Weather Map
  • News
  • Weather Widgets
  • user-avatar
    Login

    Hourly Weather Santa Cruz Tepexpan

    Today, 20 April, Saturday

    Time Temperature Precipitation Wind Pressure Humidity
    00:00 +11°C° 0 mm 1 mps 557 mmHg 82%
    01:00 +11°C° 0 mm 1 mps 557 mmHg 83%
    02:00 +11°C° 0 mm 1 mps 556 mmHg 84%
    03:00 +10°C° 0 mm 1 mps 556 mmHg 85%
    04:00 +10°C° 0 mm 1 mps 556 mmHg 86%
    05:00 +10°C° 0 mm 1 mps 557 mmHg 87%
    06:00 +13°C° 0 mm 1 mps 558 mmHg 74%
    07:00 +15°C° 0 mm 0 mps 560 mmHg 62%
    08:00 +18°C° 0 mm 0 mps 562 mmHg 49%
    09:00 +21°C° 0 mm 0 mps 563 mmHg 41%
    10:00 +26°C° 0 mm 1 mps 564 mmHg 33%
    11:00 +29°C° 0 mm 1 mps 565 mmHg 24%
    12:00 +27°C° 0 mm 1 mps 563 mmHg 26%
    13:00 +25°C° 0 mm 1 mps 562 mmHg 29%
    14:00 +23°C° 0 mm 1 mps 560 mmHg 31%
    15:00 +22°C° 0.1 mm 1 mps 559 mmHg 34%
    16:00 +22°C° 0.1 mm 1 mps 559 mmHg 37%
    17:00 +21°C° 0.1 mm 1 mps 558 mmHg 41%
    18:00 +19°C° 0 mm 1 mps 558 mmHg 46%
    19:00 +18°C° 0 mm 1 mps 558 mmHg 51%
    20:00 +15°C° 0 mm 1 mps 558 mmHg 56%
    21:00 +15°C° 0 mm 1 mps 558 mmHg 58%
    22:00 +14°C° 0 mm 1 mps 558 mmHg 60%
    23:00 +13°C° 0 mm 0 mps 558 mmHg 62%

    Tomorrow, 21 April, Sunday

    Time Temperature Precipitation Wind Pressure Humidity
    00:00 +13°C° 0 mm 1 mps 557 mmHg 63%
    01:00 +13°C° 0 mm 1 mps 557 mmHg 65%
    02:00 +12°C° 0 mm 1 mps 556 mmHg 67%
    03:00 +12°C° 0 mm 1 mps 556 mmHg 69%
    04:00 +11°C° 0 mm 1 mps 556 mmHg 70%
    05:00 +11°C° 0 mm 1 mps 556 mmHg 72%
    06:00 +14°C° 0 mm 1 mps 558 mmHg 61%
    07:00 +16°C° 0 mm 1 mps 559 mmHg 51%
    08:00 +19°C° 0 mm 2 mps 561 mmHg 40%
    09:00 +23°C° 0 mm 1 mps 562 mmHg 34%
    10:00 +26°C° 0 mm 1 mps 563 mmHg 28%
    11:00 +29°C° 0 mm 1 mps 565 mmHg 22%
    12:00 +28°C° 0 mm 1 mps 564 mmHg 22%
    13:00 +28°C° 0 mm 1 mps 562 mmHg 22%
    14:00 +27°C° 0 mm 1 mps 561 mmHg 22%
    15:00 +25°C° 0.2 mm 1 mps 560 mmHg 26%
    16:00 +24°C° 0.2 mm 1 mps 559 mmHg 30%
    17:00 +22°C° 0.2 mm 1 mps 558 mmHg 35%
    18:00 +21°C° 0 mm 1 mps 558 mmHg 38%
    19:00 +20°C° 0 mm 1 mps 558 mmHg 42%
    20:00 +18°C° 0 mm 1 mps 558 mmHg 46%
    21:00 +18°C° 0 mm 1 mps 558 mmHg 48%
    22:00 +16°C° 0 mm 1 mps 558 mmHg 50%
    23:00 +15°C° 0 mm 1 mps 558 mmHg 52%

    Day after tomorrow, 22 April, Monday

    Time Temperature Precipitation Wind Pressure Humidity
    00:00 +14°C° 0 mm 1 mps 557 mmHg 53%
    01:00 +14°C° 0 mm 1 mps 557 mmHg 53%
    02:00 +14°C° 0 mm 1 mps 556 mmHg 54%
    03:00 +13°C° 0 mm 1 mps 556 mmHg 55%
    04:00 +13°C° 0 mm 1 mps 556 mmHg 55%
    05:00 +12°C° 0 mm 1 mps 556 mmHg 56%
    06:00 +15°C° 0 mm 1 mps 558 mmHg 48%
    07:00 +19°C° 0 mm 1 mps 560 mmHg 41%
    08:00 +22°C° 0 mm 1 mps 562 mmHg 33%
    09:00 +25°C° 0 mm 1 mps 563 mmHg 29%
    10:00 +28°C° 0 mm 1 mps 564 mmHg 24%
    11:00 +31°C° 0 mm 1 mps 565 mmHg 20%
    12:00 +29°C° 0 mm 1 mps 563 mmHg 21%
    13:00 +28°C° 0 mm 1 mps 561 mmHg 23%
    14:00 +26°C° 0 mm 1 mps 560 mmHg 24%
    15:00 +24°C° 0.2 mm 1 mps 559 mmHg 31%
    16:00 +23°C° 0.2 mm 2 mps 558 mmHg 37%
    17:00 +20°C° 0.2 mm 2 mps 557 mmHg 43%
    18:00 +19°C° 0.4 mm 2 mps 557 mmHg 48%
    19:00 +18°C° 0.4 mm 2 mps 557 mmHg 53%
    20:00 +18°C° 0.4 mm 1 mps 557 mmHg 57%
    21:00 +18°C° 0.1 mm 1 mps 557 mmHg 58%
    22:00 +16°C° 0.1 mm 1 mps 557 mmHg 59%
    23:00 +15°C° 0.1 mm 0 mps 557 mmHg 60%

    23 April, Tuesday

    Time Temperature Precipitation Wind Pressure Humidity
    00:00 +15°C° 0 mm 1 mps 557 mmHg 62%
    01:00 +15°C° 0 mm 1 mps 556 mmHg 63%
    02:00 +14°C° 0 mm 1 mps 556 mmHg 64%
    03:00 +14°C° 0 mm 1 mps 556 mmHg 67%
    04:00 +13°C° 0 mm 1 mps 555 mmHg 69%
    05:00 +13°C° 0 mm 1 mps 555 mmHg 72%
    06:00 +16°C° 0 mm 1 mps 557 mmHg 61%
    07:00 +19°C° 0 mm 1 mps 559 mmHg 49%
    08:00 +22°C° 0 mm 1 mps 561 mmHg 38%
    09:00 +25°C° 0 mm 1 mps 562 mmHg 33%
    10:00 +28°C° 0 mm 1 mps 563 mmHg 27%
    11:00 +29°C° 0 mm 0 mps 564 mmHg 21%
    12:00 +28°C° 0.2 mm 1 mps 562 mmHg 27%
    13:00 +26°C° 0.2 mm 1 mps 559 mmHg 32%
    14:00 +23°C° 0.2 mm 2 mps 557 mmHg 37%
    15:00 +23°C° 0.2 mm 2 mps 557 mmHg 39%
    16:00 +23°C° 0.2 mm 2 mps 557 mmHg 41%
    17:00 +21°C° 0.2 mm 2 mps 557 mmHg 43%
    18:00 +21°C° 0.2 mm 1 mps 557 mmHg 47%
    19:00 +19°C° 0.2 mm 1 mps 556 mmHg 52%
    20:00 +16°C° 0.2 mm 1 mps 556 mmHg 57%
    21:00 +16°C° 0.1 mm 1 mps 556 mmHg 58%
    22:00 +15°C° 0.1 mm 1 mps 556 mmHg 59%
    23:00 +15°C° 0.1 mm 1 mps 556 mmHg 60%

    24 April, Wednesday

    Time Temperature Precipitation Wind Pressure Humidity
    00:00 +15°C° 0 mm 1 mps 556 mmHg 61%
    01:00 +14°C° 0 mm 1 mps 555 mmHg 62%
    02:00 +14°C° 0 mm 1 mps 555 mmHg 63%
    03:00 +14°C° 0 mm 1 mps 555 mmHg 62%
    04:00 +14°C° 0 mm 1 mps 555 mmHg 62%
    05:00 +13°C° 0 mm 1 mps 555 mmHg 62%
    06:00 +16°C° 0 mm 1 mps 557 mmHg 53%
    07:00 +19°C° 0 mm 1 mps 558 mmHg 43%
    08:00 +20°C° 0 mm 2 mps 560 mmHg 34%
    09:00 +24°C° 0 mm 2 mps 560 mmHg 30%
    10:00 +26°C° 0 mm 2 mps 561 mmHg 25%
    11:00 +28°C° 0 mm 2 mps 562 mmHg 21%
    12:00 +28°C° 0 mm 2 mps 561 mmHg 21%
    13:00 +27°C° 0 mm 3 mps 560 mmHg 21%
    14:00 +27°C° 0 mm 4 mps 559 mmHg 20%
    15:00 +26°C° 0 mm 4 mps 558 mmHg 22%
    16:00 +25°C° 0 mm 4 mps 558 mmHg 24%
    17:00 +23°C° 0 mm 4 mps 557 mmHg 26%
    18:00 +21°C° 0 mm 3 mps 557 mmHg 31%
    19:00 +19°C° 0 mm 2 mps 556 mmHg 36%
    20:00 +16°C° 0 mm 1 mps 556 mmHg 41%
    21:00 +16°C° 0 mm 1 mps 555 mmHg 41%
    22:00 +15°C° 0 mm 1 mps 555 mmHg 42%
    23:00 +14°C° 0 mm 2 mps 555 mmHg 42%

    25 April, Thursday

    Time Temperature Precipitation Wind Pressure Humidity
    00:00 +14°C° 0 mm 1 mps 555 mmHg 42%
    01:00 +13°C° 0 mm 1 mps 555 mmHg 42%
    02:00 +13°C° 0 mm 1 mps 554 mmHg 42%
    03:00 +12°C° 0 mm 1 mps 554 mmHg 41%
    04:00 +12°C° 0 mm 1 mps 554 mmHg 41%
    05:00 +11°C° 0 mm 1 mps 554 mmHg 41%
    06:00 +14°C° 0 mm 1 mps 556 mmHg 35%
    07:00 +18°C° 0 mm 1 mps 558 mmHg 30%
    08:00 +21°C° 0 mm 1 mps 560 mmHg 25%
    09:00 +23°C° 0 mm 1 mps 561 mmHg 22%
    10:00 +25°C° 0 mm 1 mps 561 mmHg 19%
    11:00 +28°C° 0 mm 2 mps 562 mmHg 16%
    12:00 +28°C° 0 mm 2 mps 561 mmHg 15%
    13:00 +28°C° 0 mm 3 mps 561 mmHg 14%
    14:00 +28°C° 0 mm 3 mps 560 mmHg 13%
    15:00 +27°C° 0 mm 3 mps 560 mmHg 14%
    16:00 +26°C° 0 mm 4 mps 559 mmHg 14%
    17:00 +23°C° 0 mm 4 mps 559 mmHg 15%
    18:00 +21°C° 0 mm 3 mps 558 mmHg 20%
    19:00 +18°C° 0 mm 2 mps 558 mmHg 24%
    20:00 +16°C° 0 mm 1 mps 557 mmHg 28%
    21:00 +15°C° 0 mm 1 mps 557 mmHg 32%
    22:00 +14°C° 0 mm 0 mps 557 mmHg 36%
    23:00 +13°C° 0 mm 0 mps 557 mmHg 40%
    Show more